KE9LZ-9 Weather Reports


time (UTC)temp
F
wind
direction
speed
knots
gust
knots
rain 1hr
in
rain 24hr
in
rain mn
in
humidity
%
barometer
mb
20260504043004 44 274 0.9 0.9 0.00 0.01 0.01 64 1002.7
20260504042004 44 295 0.0 0.9 0.00 0.01 0.01 62 1002.8
20260504035004 46 294 0.0 0.9 0.00 0.01 0.01 53 1003.2
20260504034004 46 299 0.0 0.9 0.00 0.01 0.01 52 1003.1
20260504033004 47 330 0.0 0.9 0.00 0.01 0.01 50 1003.3
20260504030004 51 316 0.0 0.9 0.00 0.01 0.01 46 1003.3
20260504025004 51 0 0.0 0.9 0.00 0.01 0.01 44 1003.3
20260504024004 53 326 0.0 0.9 0.00 0.01 0.01 43 1003.2
20260504023004 54 330 0.0 0.9 0.00 0.01 0.01 42 1003.2
20260504022004 56 38 0.0 1.7 0.00 0.01 0.01 40 1003.1
20260504021003 57 3 0.9 2.6 0.00 0.01 0.01 40 1003.1
20260504020003 58 353 1.7 2.6 0.00 0.01 0.01 42 1002.9
20260504015003 58 47 0.9 1.7 0.00 0.01 0.01 40 1002.7
20260504014004 60 10 1.7 2.6 0.00 0.01 0.01 38 1002.6
20260504013004 61 21 1.7 5.2 0.00 0.01 0.01 37 1002.5
20260504012004 61 38 1.7 4.3 0.00 0.01 0.01 36 1002.5
20260504011004 63 358 1.7 4.3 0.00 0.01 0.01 32 1002.3
20260504010004 64 353 1.7 6.1 0.00 0.01 0.01 29 1001.9
20260504005004 64 324 1.7 5.2 0.00 0.01 0.01 29 1001.7
20260504004003 65 23 0.9 10.4 0.00 0.01 0.01 29 1001.5
20260504003004 66 346 1.7 10.4 0.00 0.01 0.01 28 1001.4
20260504002004 67 357 4.3 10.4 0.00 0.01 0.01 27 1001.3
20260504000003 69 353 2.6 8.7 0.00 0.01 0.01 28 1001.0
20260503235004 70 311 4.3 13.0 0.00 0.01 0.01 27 1001.0
20260503234004 70 329 2.6 10.4 0.00 0.01 0.01 28 1000.7
20260503233004 71 337 3.5 8.7 0.00 0.01 0.01 28 1000.6
20260503232004 71 326 2.6 7.8 0.00 0.01 0.01 28 1000.5
20260503230004 70 290 6.1 10.4 0.00 0.01 0.01 33 1000.5
20260503224004 66 303 2.6 8.7 0.00 0.01 0.01 43 1000.8
20260503223004 66 238 1.7 4.3 0.00 0.01 0.01 42 1000.5
20260503222004 66 232 1.7 7.8 0.01 0.01 0.01 41 1000.6
20260503221004 67 282 2.6 7.8 0.01 0.01 0.01 41 1000.7
20260503220004 69 288 2.6 13.0 0.01 0.01 0.01 41 1000.7
20260503215004 67 337 4.3 8.7 0.01 0.01 0.01 44 1000.9
20260503214004 64 310 2.6 6.1 0.01 0.01 0.01 51 1001.0
20260503212003 64 237 4.3 10.4 0.00 0.00 0.00 43 1001.3
20260503211004 64 310 4.3 7.0 0.00 0.00 0.00 48 1001.4
20260503210005 64 294 1.7 11.3 0.00 0.00 0.00 51 1001.3
20260503205004 61 262 4.3 17.4 0.00 0.00 0.00 56 1001.7
20260503204005 67 286 6.1 13.0 0.00 0.00 0.00 38 1001.0
20260503203004 68 267 4.3 14.8 0.00 0.00 0.00 37 1001.1
20260503202003 68 248 4.3 13.0 0.00 0.00 0.00 38 1001.1
20260503201003 68 261 7.0 13.0 0.00 0.00 0.00 38 1001.1
20260503200003 68 280 2.6 13.9 0.00 0.00 0.00 38 1001.3
20260503195003 68 285 4.3 13.0 0.00 0.00 0.00 38 1001.5
20260503194003 70 247 3.5 13.0 0.00 0.00 0.00 37 1001.8
20260503192004 69 246 3.5 15.6 0.00 0.00 0.00 37 1001.9
20260503191004 69 305 7.0 13.0 0.00 0.00 0.00 36 1002.1
20260503185004 70 270 5.2 15.6 0.00 0.00 0.00 37 1002.3
20260503184003 69 288 2.6 13.0 0.00 0.00 0.00 38 1002.4
20260503182005 67 273 7.0 19.1 0.00 0.00 0.00 38 1002.9
20260503181004 67 302 5.2 13.0 0.00 0.00 0.00 39 1002.8
20260503180004 67 295 6.1 14.8 0.00 0.00 0.00 40 1002.9
20260503175004 67 286 4.3 11.3 0.00 0.00 0.00 40 1003.2
20260503174004 67 224 4.3 8.7 0.00 0.00 0.00 39 1003.2
20260503173003 65 221 2.6 13.9 0.00 0.00 0.00 41 1003.4
20260503172004 66 288 5.2 12.2 0.00 0.00 0.00 41 1003.7
20260503171003 66 241 5.2 13.0 0.00 0.00 0.00 40 1003.9
20260503151004 56 241 3.5 13.9 0.00 0.00 0.00 56 1005.5
20260503131004 49 243 1.7 5.2 0.00 0.00 0.00 76 1006.9
20260503081003 43 332 1.7 2.6 0.00 0.00 0.00 68 1008.3
20260503055004 35 67 0.0 1.7 0.00 0.00 0.00 90 1009.7
20260503054003 34 343 0.9 1.7 0.00 0.00 0.00 90 1009.7
20260503053004 34 5 0.9 1.7 0.00 0.00 0.00 91 1010.0
20260503052004 34 0 0.9 0.9 0.00 0.00 0.00 90 1009.9
20260503051004 34 22 0.0 1.7 0.00 0.00 0.00 90 1010.0
20260503050004 34 29 0.9 1.7 0.00 0.00 0.00 89 1009.9
20260503045004 35 55 0.0 2.6 0.00 0.00 0.00 89 1010.2
20260503044004 35 155 0.0 1.7 0.00 0.00 0.00 88 1010.2